Voltar ao catálogo

COSMOS 2318

GLONASS

LostNavegaçãoMEO
NORAD 23622·PAYLOAD·🇷🇺 Russia

Lançado Jul 24, 1995 de Baikonur Cosmodrome

Loading…

Próximas Passagens (próximas 24 horas)

TLE

ObsoletoSource: Space-Track

Época: Aug 1, 2026, 05:08 UTC

1 23622U 95037C   26213.21455514  .00000080  00000-0  00000+0 0  9997
2 23622  65.4732 201.3814 0014359  62.4849  53.6792  2.13101994241197

Acompanhe COSMOS 2318 em tempo real com AllMySat

Download on the App Store